Flag for Germany Weather past 2 weeks in Aalen, Baden-Württemberg, Germany

Now
53 °F

Scattered clouds.


Feels Like: N/A
Forecast: 41 / 64 °F
Wind: N/A

Location: Stoetten

Current Time: May 22, 2015 at 9:38:58 PM

Latest Report: May 22, 2015 at 9:00 PM


Visibility: 47 mi

Pressure: 30.17 "Hg

Humidity: 49%

Dew point: 34 °F

Location of AalenLocation

Historic Weather in Aalen — Graph

°F

Aalen temperature yesterday

Maximum temperature yesterday: 53 °F (at 7:00 PM)
Minimum temperature yesterday: 41 °F (at 5:00 AM)
Average temperature yesterday: 47 °F

Past Weeks' High & Low Weather Summary

 TemperatureHumidityPressure
High77 °F (May 12, 4:00 PM)100% (May 14, 3:00 AM)30.35 "Hg (May 14, 3:00 AM)
Low40 °F (May 20, 1:00 PM)36% (May 12, 3:00 PM)29.70 "Hg (May 18, 8:00 PM)
Average54 °F73%30.08 "Hg
* Reported May 7 8:00 PM — May 22 8:00 PM, Aalen, Weather by CustomWeather, © 2015

Note: Actual official high and low records may vary slightly from our data, if they occured in-between our weather recording intervals... More about our weather records

Advertising

Aalen weather history for previous 24 hours

 ConditionsComfort  
Time TempWeatherWind HumidityBarometerVisibility
8:00 PM
Fri, May 22
56 °FPartly sunny.3 mph47%30.15 "Hg47 mi
7:00 PM56 °FPartly sunny.6 mph43%30.15 "Hg47 mi
6:00 PM57 °FPartly sunny.N/A40%30.16 "Hg47 mi
5:00 PM58 °FScattered clouds.N/A38%30.16 "Hg47 mi
4:00 PM58 °FScattered clouds.N/A42%30.18 "Hg47 mi
3:00 PM58 °FScattered clouds.N/A44%30.20 "Hg47 mi
2:00 PM57 °FScattered clouds.N/A51%30.22 "Hg47 mi
1:00 PM54 °FScattered clouds.3 mph53%30.25 "Hg43 mi
12:00 PM54 °FScattered clouds.N/A52%30.26 "Hg43 mi
11:00 AM50 °FScattered clouds.3 mph72%30.29 "Hg43 mi
10:00 AM53 °FPassing clouds.3 mph63%30.28 "Hg43 mi
9:00 AM50 °FPassing clouds.2 mph71%30.30 "Hg43 mi
8:00 AM47 °FPassing clouds.2 mph74%30.32 "Hg43 mi
7:00 AM43 °FPassing clouds.3 mph76%30.33 "Hg43 mi
6:00 AM40 °FSunny.N/A77%30.34 "Hg31 mi
5:00 AM41 °FClear.N/A72%30.34 "Hg28 mi
4:00 AM41 °FClear.2 mph72%30.35 "Hg28 mi
3:00 AM41 °FClear.5 mph69%30.35 "Hg34 mi
2:00 AM42 °FClear.5 mph68%30.35 "Hg28 mi
1:00 AM43 °FClear.3 mph68%30.35 "Hg31 mi
12:00 AM44 °FClear.5 mph64%30.34 "Hg34 mi
11:00 PM
Thu, May 21
45 °FClear.6 mph62%30.34 "Hg37 mi
10:00 PM47 °FPassing clouds.5 mph58%30.32 "Hg43 mi
9:00 PM49 °FPassing clouds.6 mph52%30.29 "Hg31 mi
Weather by CustomWeather, © 2015

See weather overviewHow to use our weather pages